Akron, OH

7:06 AM EST on November 24, 2017 (GMT -0500)
Akron Fulton International

Weather History for KAKR - March, 2013

Change the Weather History Date:

Wednesday, March 27, 2013

  Actual Average (KCAK) Record (KCAK)
Temperature  
Mean Temperature 38 °F -  
Max Temperature 44 °F 50 °F 79 °F (1950)
Min Temperature 32 °F 30 °F 12 °F (1982)
Degree Days  
Heating Degree Days 28    
Moisture  
Dew Point 28 °F    
Average Humidity 73    
Maximum Humidity 93    
Minimum Humidity 49    
Precipitation  
Precipitation 0.00 in - - ()
Sea Level Pressure  
Sea Level Pressure 30.13 in    
Wind  
Wind Speed 10 mph (WNW)    
Max Wind Speed 17 mph    
Max Gust Speed 25 mph    
Visibility 9 miles    
Events Snow    
Averages and records for this station are not official NWS values.
T = Trace of Precipitation, MM = Missing Value Source: NWS Daily Summary

Daily Weather History Graph

Daily Weather History Graph

Search for Another Location

Airport or City:

Trip Planner

Search our weather history database for the weather conditions in past years. The results will help you decide how hot, cold, wet, or windy it might be!

Date:

Astronomy

Mar. 27, 2013 Rise Set
Actual Time 7:17 AM EDT 7:45 PM EDT
Civil Twilight 6:49 AM EDT 8:13 PM EDT
Nautical Twilight 6:17 AM EDT 8:45 PM EDT
Astronomical Twilight 5:43 AM EDT 9:19 PM EDT
Moon 8:28 PM EDT (3/27) 7:06 AM EDT (3/27)
Length of Visible Light 13h 23m
Length of Day
12h 28m
Full, 100% of the Moon is Illuminated
Mar 27
Full
Apr 3
Last Quarter
Apr 10
New
Apr 18
First Quarter
Apr 25
Full

Hourly Weather History & Observations

Time (EDT) Temp. Windchill Dew Point Humidity Pressure Visibility Wind Dir Wind Speed Gust Speed Precip Events Conditions
12:24 AM 33.8 °F 26.4 °F 30.2 °F 87% 30.08 in 8.0 mi WNW 9.2 mph - 0.00 in   Overcast
12:47 AM 33.8 °F 26.4 °F 30.2 °F 87% 30.08 in 6.0 mi West 9.2 mph - 0.00 in   Overcast
12:54 AM 33.1 °F 26.1 °F 30.0 °F 89% 30.10 in 8.0 mi West 8.1 mph - 0.00 in   Overcast
1:11 AM 33.8 °F 25.8 °F 30.2 °F 87% 30.07 in 8.0 mi West 10.4 mph - N/A   Overcast
1:23 AM 33.8 °F 27.7 °F 30.2 °F 87% 30.07 in 7.0 mi West 6.9 mph - N/A   Overcast
1:54 AM 33.1 °F 26.9 °F 30.0 °F 89% 30.10 in 5.0 mi West 6.9 mph - 0.00 in Snow Light Snow
2:54 AM 33.1 °F 26.1 °F 30.0 °F 89% 30.10 in 6.0 mi West 8.1 mph - 0.00 in Snow Light Snow
3:54 AM 33.1 °F 25.5 °F 30.0 °F 89% 30.09 in 6.0 mi West 9.2 mph - 0.00 in   Overcast
4:54 AM 33.1 °F 24.9 °F 30.0 °F 89% 30.09 in 7.0 mi WNW 10.4 mph - 0.00 in Snow Light Snow
5:29 AM 32.0 °F 25.6 °F 30.2 °F 93% 30.07 in 2.5 mi WNW 6.9 mph - 0.00 in Snow Light Snow
5:36 AM 32.0 °F 24.8 °F 30.2 °F 93% 30.07 in 4.0 mi WNW 8.1 mph - 0.00 in Snow Light Snow
5:54 AM 32.0 °F 24.8 °F 30.0 °F 92% 30.10 in 6.0 mi WNW 8.1 mph - 0.00 in Snow Light Snow
6:54 AM 32.0 °F 23.6 °F 28.9 °F 88% 30.12 in 10.0 mi WNW 10.4 mph - 0.00 in   Overcast
7:54 AM 32.0 °F 22.5 °F 28.9 °F 88% 30.14 in 9.0 mi WNW 12.7 mph - N/A   Overcast
8:36 AM 33.8 °F 27.0 °F 28.4 °F 81% 30.12 in 10.0 mi WNW 8.1 mph - N/A   Scattered Clouds
8:54 AM 33.1 °F 26.9 °F 27.0 °F 78% 30.15 in 10.0 mi WNW 6.9 mph 17.3 mph N/A   Scattered Clouds
9:54 AM 36.0 °F 26.3 °F 28.0 °F 73% 30.16 in 10.0 mi WNW 16.1 mph 19.6 mph N/A   Partly Cloudy
10:22 AM 35.6 °F 26.6 °F 26.6 °F 70% 30.13 in 10.0 mi WNW 13.8 mph 19.6 mph N/A   Mostly Cloudy
10:54 AM 36.0 °F 26.7 °F 25.0 °F 64% 30.16 in 10.0 mi WNW 15.0 mph - N/A   Mostly Cloudy
11:14 AM 35.6 °F 26.6 °F 24.8 °F 65% 30.13 in 10.0 mi WNW 13.8 mph - N/A   Mostly Cloudy
11:54 AM 39.0 °F 31.4 °F 26.1 °F 60% 30.16 in 10.0 mi WNW 12.7 mph 21.9 mph N/A   Mostly Cloudy
12:54 PM 41.0 °F 32.5 °F 25.0 °F 53% 30.16 in 10.0 mi WNW 17.3 mph 25.3 mph N/A   Scattered Clouds
1:54 PM 43.0 °F 35.1 °F 25.0 °F 49% 30.16 in 10.0 mi WNW 17.3 mph 21.9 mph N/A   Overcast
2:54 PM 42.1 °F 35.2 °F 25.0 °F 51% 30.15 in 10.0 mi WNW 12.7 mph 21.9 mph N/A   Overcast
3:54 PM 42.1 °F 35.7 °F 25.0 °F 51% 30.14 in 10.0 mi WNW 11.5 mph 25.3 mph N/A   Overcast
4:54 PM 41.0 °F 34.7 °F 26.1 °F 55% 30.14 in 10.0 mi WNW 10.4 mph 21.9 mph N/A   Overcast
5:54 PM 39.9 °F 32.1 °F 25.0 °F 55% 30.16 in 10.0 mi West 13.8 mph 20.7 mph N/A   Overcast
6:54 PM 39.9 °F 31.4 °F 25.0 °F 55% 30.16 in 10.0 mi West 16.1 mph 20.7 mph N/A   Overcast
7:54 PM 39.9 °F 33.4 °F 24.1 °F 53% 30.16 in 10.0 mi West 10.4 mph 20.7 mph N/A   Overcast
8:54 PM 39.0 °F 30.3 °F 26.1 °F 60% 30.17 in 10.0 mi West 16.1 mph - N/A   Overcast
9:54 PM 37.9 °F 30.0 °F 28.0 °F 68% 30.17 in 10.0 mi West 12.7 mph - N/A   Overcast
10:54 PM 37.0 °F 28.1 °F 28.0 °F 70% 30.17 in 10.0 mi West 15.0 mph - N/A   Overcast
11:54 PM 37.0 °F 29.3 °F 27.0 °F 67% 30.17 in 10.0 mi West 11.5 mph - N/A   Overcast